Theta_e
337 339 339 336 337 336 336 335 334 334 334 333 333 332 332 331 329 328 329 327 326 324 323 323 321 320 319 318 318 315 314 314 313 312 313 313 315 309 311 310 312 314 315 315 317 318 320 321 328 330 332 333 334 334 334 332 325 326 325 325 325 325 326 326 324 323 323 323 323 322 322 322 321 321 322 322 322 324 324 324 325 325 326 326 326
336 337 336 332 332 332 332 332 333 334 333 332 331 330 330 328 328 328 326 326 325 324 323 323 321 320 320 319 317 315 316 315 315 314 314 314 314 312 307 310 309 311 312 315 316 317 317 319 322 327 331 331 332 334 334 333 331 325 326 326 324 325 325 328 325 324 324 324 323 323 322 322 322 322 322 322 322 322 323 322 323 323 323 324 325
335 334 333 332 331 331 330 330 329 329 328 329 328 328 328 326 324 324 324 323 321 323 323 323 322 320 319 318 317 317 316 317 316 315 314 314 314 313 316 309 310 310 311 311 313 315 316 318 320 323 325 326 330 331 332 332 330 329 329 328 326 326 326 327 327 326 324 325 324 323 322 322 321 321 321 321 321 321 322 322 322 322 322 322 323
328 329 330 329 329 328 326 326 325 325 324 325 325 324 323 321 320 320 321 321 320 321 323 323 322 320 319 318 317 317 317 317 316 314 312 313 313 313 312 310 310 311 311 311 311 312 313 315 317 319 321 323 325 327 329 331 331 331 330 331 331 330 329 329 330 330 327 326 325 324 323 323 322 320 320 321 321 321 321 320 321 321 321 321 322
326 326 325 327 326 325 324 323 322 322 322 322 323 324 323 321 319 320 321 321 321 321 323 323 322 320 319 318 318 318 317 317 315 313 311 312 310 309 311 310 309 309 310 311 311 311 311 311 313 314 317 318 319 321 322 325 328 330 330 331 330 329 330 330 330 330 330 328 327 325 324 323 323 322 320 321 321 321 321 321 320 320 321 321 321
323 323 323 322 321 320 320 320 320 320 321 322 321 322 322 320 320 321 317 320 318 317 318 320 321 321 320 319 318 317 317 316 314 312 312 310 309 309 308 308 307 308 308 311 311 311 310 310 310 311 313 313 314 315 318 321 323 324 325 327 328 329 329 329 329 329 330 330 329 327 325 325 323 322 321 321 321 321 321 320 320 320 320 320 321
322 321 321 321 319 318 317 318 320 321 321 321 320 320 319 318 319 320 318 317 317 314 314 316 318 319 319 318 317 317 317 315 314 313 310 309 309 308 308 307 306 306 306 307 308 310 310 309 310 310 310 311 312 313 315 316 318 320 321 322 323 324 325 326 326 327 329 330 328 327 325 324 323 323 322 322 322 321 321 320 320 320 319 320 319
320 321 319 320 318 316 316 317 318 318 319 319 320 317 315 314 314 317 318 315 314 312 311 309 310 313 315 316 315 314 314 313 312 310 309 309 307 307 306 305 305 305 305 305 305 308 308 310 309 310 310 310 311 313 314 314 315 316 316 317 318 319 320 321 322 324 326 328 328 329 326 325 324 323 323 323 322 322 322 321 321 320 320 320 319
315 316 316 316 315 315 315 315 315 314 315 315 316 317 315 312 311 313 314 310 308 307 307 308 308 310 313 315 315 314 313 311 309 308 309 307 306 306 305 305 305 304 304 304 304 304 306 308 308 309 309 309 308 311 312 313 314 314 314 314 314 316 317 317 318 320 321 322 324 326 328 323 322 322 322 322 323 323 322 322 321 320 320 319 319
312 313 313 312 312 312 312 311 311 311 310 310 309 310 311 310 305 305 306 306 304 304 305 306 308 309 311 314 314 312 312 309 307 305 306 307 306 305 304 304 304 305 304 304 304 304 305 305 306 307 308 309 306 308 310 311 312 313 314 315 316 316 316 316 316 316 317 318 320 322 325 327 324 323 323 323 323 323 323 322 321 320 320 319 319
309 310 310 310 310 309 309 310 310 310 309 309 309 310 310 310 308 305 305 305 304 305 305 306 308 310 311 311 312 311 309 306 306 307 307 307 304 305 306 304 305 305 305 305 305 305 305 305 304 304 305 308 305 306 308 309 309 311 313 313 313 313 314 315 315 316 316 316 317 318 320 324 326 325 324 324 323 323 323 322 321 320 320 320 320
306 307 307 308 308 307 307 308 308 308 307 307 307 308 309 308 308 307 306 305 305 305 305 305 307 309 309 310 311 309 306 306 307 306 306 305 305 304 303 304 304 304 304 305 305 305 304 304 303 303 304 305 307 305 305 306 306 308 311 313 313 313 313 313 314 315 315 315 316 316 317 319 322 326 325 325 324 324 323 322 321 321 321 321 319
304 305 305 304 305 305 305 305 306 305 305 304 305 306 307 309 307 307 305 303 303 304 304 305 306 305 307 308 308 306 305 306 304 304 304 305 304 303 304 302 300 301 302 303 303 303 303 302 301 302 302 303 303 305 307 307 307 307 309 310 313 314 313 313 314 313 314 314 315 316 316 316 318 321 325 325 324 324 323 322 321 321 321 321 320
301 303 303 303 303 303 303 303 303 303 303 303 303 303 305 305 307 305 304 302 300 302 302 303 302 299 301 304 305 304 304 304 303 302 304 304 303 303 302 297 297 298 300 299 299 300 300 300 300 301 301 302 302 302 303 303 305 305 307 307 308 311 313 314 315 314 313 314 314 315 316 316 316 317 319 324 324 324 324 323 322 322 322 322 321
299 300 300 301 301 301 301 301 301 301 300 300 301 301 301 302 303 303 303 302 300 300 300 301 298 299 303 303 300 299 300 301 300 302 302 302 302 301 300 297 296 297 298 297 296 297 298 297 298 299 300 300 301 302 301 301 302 301 304 305 305 308 312 313 314 314 314 313 314 314 314 315 316 317 317 318 321 324 324 324 323 323 323 322 322
297 297 298 298 299 299 299 299 299 299 298 297 297 298 298 299 300 300 301 299 298 296 298 299 298 297 295 297 299 300 297 293 293 301 299 300 299 299 298 296 296 296 298 296 295 296 296 295 296 297 298 299 300 301 302 301 301 300 300 301 303 308 310 312 313 314 314 315 316 315 314 314 315 316 317 318 318 319 323 324 324 324 323 323 322
295 295 295 295 296 296 296 295 295 295 295 294 293 294 295 296 297 297 296 295 296 296 294 295 296 297 295 294 295 293 290 290 290 298 292 298 297 298 297 295 294 295 296 296 296 296 295 295 295 296 298 298 298 299 300 301 300 300 300 299 302 304 307 309 311 312 312 312 313 314 314 314 314 315 316 317 318 319 319 322 324 324 324 323 322
293 293 293 294 293 294 294 293 293 293 293 293 292 292 293 293 294 294 294 295 293 293 292 293 294 295 296 295 293 288 288 290 288 284 291 300 296 295 295 293 293 295 296 294 295 296 294 294 295 296 297 297 297 298 299 299 299 300 299 300 302 303 304 306 306 308 310 310 311 313 313 314 314 314 314 315 316 317 319 320 320 323 324 323 323
292 292 292 292 293 293 293 292 292 292 292 292 291 291 292 293 293 292 292 293 293 290 290 291 292 292 294 294 295 295 294 289 285 287 284 290 292 292 292 293 292 293 294 292 293 294 293 293 294 295 296 297 298 298 298 298 299 299 301 301 302 302 302 302 303 304 306 306 308 310 311 312 312 313 314 315 315 315 316 317 318 320 321 323 324
291 291 291 291 291 291 291 291 291 291 291 291 291 291 292 292 292 293 292 291 291 290 289 289 288 289 291 291 291 293 294 294 292 287 285 282 285 292 293 291 292 291 291 291 292 292 292 292 293 295 295 296 297 297 298 298 298 299 298 300 301 300 300 300 300 300 302 305 306 307 307 309 310 311 312 312 314 315 315 316 317 318 318 319 320
290 290 290 290 290 290 290 290 289 289 290 290 290 290 290 290 290 290 290 290 290 290 290 289 288 288 288 289 290 289 290 291 291 290 285 284 284 285 285 290 292 292 290 291 292 292 292 292 293 294 295 296 296 296 296 296 296 297 297 299 300 300 300 300 300 300 300 301 302 303 304 305 307 309 311 312 312 312 313 315 316 316 317 318 318
289 290 289 290 290 289 289 288 288 288 288 288 289 289 289 289 289 289 290 289 290 289 288 289 289 289 288 288 287 287 287 287 287 286 287 287 283 283 285 284 283 288 291 291 290 291 292 292 292 293 294 294 293 294 295 295 295 298 299 298 298 298 298 299 299 299 300 300 300 300 302 303 305 307 309 311 312 312 313 313 314 315 316 317 318
288 288 289 289 289 289 288 288 288 288 287 287 287 288 288 288 289 289 288 288 288 288 288 288 288 288 287 287 286 286 285 285 284 285 285 283 283 284 285 286 285 284 288 290 290 291 291 292 292 292 294 294 292 292 292 293 295 298 297 298 297 297 297 297 298 298 299 300 300 300 302 302 303 305 306 309 311 312 312 313 313 313 314 315 316
287 288 288 289 288 288 288 288 287 287 287 287 288 288 288 288 288 287 287 288 288 287 287 286 287 287 287 287 286 287 287 286 286 286 285 284 284 283 283 285 285 285 287 288 290 291 291 291 292 293 295 292 292 293 293 294 294 294 294 296 296 295 296 297 298 298 298 298 299 299 300 301 302 302 303 305 307 310 312 312 313 313 314 314 315
287 286 287 288 287 287 287 287 287 287 287 287 287 288 287 287 287 287 286 286 286 286 285 286 285 285 285 287 286 287 286 287 287 286 286 286 285 282 283 284 282 283 285 286 286 288 289 292 292 294 293 292 293 293 293 294 293 294 294 293 294 294 294 295 296 297 297 297 298 299 299 299 300 301 302 303 304 306 309 311 313 313 313 314 314
286 286 287 287 287 287 287 287 287 287 287 287 287 288 288 287 286 286 286 286 286 286 285 286 285 285 286 285 285 286 286 286 285 286 285 284 283 282 281 282 283 282 285 285 286 285 287 292 291 290 290 290 291 292 291 291 291 292 292 291 291 293 293 294 295 295 296 297 297 298 298 298 298 299 301 303 303 303 304 306 308 311 312 312 313
286 287 287 287 287 287 287 286 287 286 286 286 287 286 287 286 285 285 284 285 285 285 285 285 285 284 285 284 284 286 285 285 285 285 285 284 284 283 282 279 280 282 281 283 284 285 285 287 289 289 289 290 291 291 291 291 290 291 291 290 289 291 293 293 294 295 296 296 296 297 297 297 297 298 299 300 301 301 301 303 304 305 308 310 310
286 286 287 287 286 286 286 286 286 285 285 285 285 285 285 285 284 284 284 285 284 284 284 285 284 284 284 283 283 284 285 285 284 284 284 284 284 284 283 281 279 277 280 279 281 282 286 284 286 289 289 289 290 289 289 289 289 291 290 288 288 289 292 292 294 295 295 295 295 296 296 297 297 298 298 298 299 299 301 303 302 304 305 306 307
286 286 286 286 286 285 285 284 285 285 284 284 284 284 285 285 284 284 283 284 284 284 284 283 283 284 283 284 283 283 284 284 283 284 284 283 284 283 283 282 281 278 277 277 279 280 283 285 282 285 288 288 287 288 287 287 289 289 288 288 288 288 290 292 293 294 294 295 295 295 295 295 296 296 297 298 298 299 300 300 300 301 302 303 304
286 286 285 284 284 284 284 284 284 284 284 284 284 284 285 284 284 284 283 283 283 284 284 283 283 283 283 283 283 283 283 283 283 283 283 283 283 283 283 283 282 279 278 277 277 281 281 284 285 284 286 286 287 287 287 287 289 288 287 287 287 287 290 291 292 292 293 294 294 294 294 295 295 295 296 296 297 298 299 299 299 300 301 302 303
284 285 284 284 283 283 284 283 283 283 283 283 283 283 284 283 283 283 283 282 282 282 283 282 282 282 281 281 282 282 283 282 282 282 283 283 283 282 282 283 282 281 280 279 276 280 283 281 283 285 284 285 286 286 286 286 287 288 287 286 286 288 289 288 289 291 292 292 292 293 294 294 294 294 294 295 296 297 298 298 298 299 300 301 303
285 285 284 283 283 283 283 283 283 283 283 282 283 282 283 282 282 281 281 281 280 280 281 282 282 282 281 280 281 281 281 281 281 282 282 282 282 282 281 281 281 281 281 279 277 277 282 281 282 283 284 284 285 284 284 285 287 287 286 285 285 287 285 285 288 289 290 291 292 293 293 293 293 294 294 294 295 296 296 297 298 299 299 300 301
284 284 283 283 283 283 283 283 283 282 282 282 282 282 282 281 281 281 280 280 279 280 280 280 281 281 280 280 280 281 281 280 280 280 280 281 281 281 281 281 280 281 280 279 277 277 279 282 282 281 283 283 282 283 283 283 283 284 285 284 284 284 285 285 285 287 288 289 290 291 292 292 293 293 294 294 294 295 295 296 296 297 299 300 300
284 284 283 284 283 283 282 282 282 282 281 281 281 280 280 280 280 282 281 279 279 279 279 279 280 281 280 279 279 280 281 280 280 279 279 279 279 279 279 280 279 279 280 278 277 276 275 279 279 281 281 283 280 283 282 281 281 282 282 282 283 284 284 284 284 285 287 288 289 290 291 292 293 293 293 293 294 294 294 295 295 296 298 299 298
283 283 283 282 282 282 281 281 281 281 281 280 280 280 279 279 279 279 280 278 278 278 278 278 279 279 279 279 279 279 281 278 278 278 279 279 279 278 278 278 278 278 279 279 277 275 275 276 278 278 279 280 280 280 281 281 281 282 281 281 281 283 283 283 283 284 287 288 290 291 291 292 292 292 292 293 293 293 293 294 294 294 296 297 298
282 282 282 281 281 281 280 280 280 280 280 280 279 279 279 278 278 278 278 278 278 278 278 278 278 278 278 278 278 278 278 277 277 277 278 278 278 277 277 277 277 277 278 278 278 276 276 275 276 277 279 278 279 280 281 281 280 280 280 280 281 281 281 282 283 283 285 288 289 289 289 290 290 291 292 292 292 293 293 293 293 293 294 294 295
281 281 281 280 280 280 280 279 279 279 279 279 278 278 278 278 277 277 277 277 277 278 278 278 278 278 278 277 277 278 277 276 276 276 277 276 276 276 276 276 276 277 277 277 277 277 276 275 275 277 278 278 278 278 279 278 278 278 279 279 279 280 280 282 283 284 284 285 285 286 287 288 289 290 291 291 292 292 292 292 293 293 293 293 294
280 280 280 280 279 279 279 278 278 278 278 278 277 277 277 277 277 277 277 277 277 278 278 278 278 278 277 277 277 277 277 276 276 276 276 276 276 275 275 276 276 276 276 276 276 276 275 275 275 274 276 275 275 276 277 277 276 275 276 277 278 279 279 278 279 279 280 281 280 281 283 284 285 287 287 289 291 291 292 292 292 292 292 292 292
279 279 279 278 279 278 278 278 277 277 277 277 277 277 277 277 276 276 277 277 278 278 278 278 278 278 278 277 277 277 276 276 276 275 275 275 275 275 276 275 276 275 275 275 275 274 274 273 273 274 273 274 274 273 275 276 276 275 274 274 274 276 277 276 276 278 279 279 281 282 282 283 284 284 285 287 288 290 291 291 291 292 291 292 292
278 278 278 278 278 278 277 277 277 277 276 276 277 277 276 276 276 276 277 277 278 278 278 278 278 278 277 277 277 277 277 276 276 276 275 274 275 274 275 275 275 274 273 273 273 273 273 272 272 271 272 272 273 274 275 275 273 273 275 274 272 273 274 276 276 276 277 277 277 278 281 282 282 283 284 285 286 287 287 287 288 289 290 291 292
279 278 278 277 277 277 277 276 276 276 275 275 276 276 275 276 277 277 277 277 277 277 277 277 277 277 277 277 277 277 277 277 278 277 277 277 275 273 274 274 273 273 273 273 272 272 271 271 270 272 271 271 272 272 271 271 271 271 273 274 272 273 274 274 275 276 277 276 277 277 278 279 279 279 279 280 281 282 283 284 285 287 289 290 291
277 277 277 276 276 276 276 276 275 275 275 276 275 275 275 275 276 277 277 277 277 276 276 276 276 277 277 277 277 278 278 278 277 277 278 277 277 276 274 274 273 273 272 272 271 271 270 269 270 270 269 270 270 271 271 271 272 273 272 273 272 273 273 273 274 275 277 277 276 275 276 278 278 278 278 278 280 281 281 281 282 284 286 288 290
276 276 276 275 275 275 275 275 275 275 275 275 275 276 276 277 277 276 276 276 276 276 275 275 275 276 276 276 276 277 277 276 276 277 277 277 277 277 277 277 276 274 272 271 271 271 270 269 270 270 269 269 270 271 271 272 272 272 272 273 273 273 272 271 270 274 277 277 275 275 275 278 278 276 277 277 279 280 281 281 284 286 286 287 288
275 275 275 275 275 275 275 274 274 274 274 275 276 276 276 277 277 276 276 276 275 275 275 275 275 275 275 275 276 276 275 274 274 274 275 276 276 276 276 276 276 276 276 273 271 270 270 269 269 269 270 269 270 271 271 272 272 272 273 273 272 272 272 271 272 271 275 278 275 274 274 277 278 277 276 277 279 280 281 284 286 287 287 288 288
275 274 274 274 274 274 274 273 273 274 273 275 275 276 276 277 277 277 276 276 275 275 275 275 275 275 275 275 274 274 274 275 275 274 273 273 275 275 275 275 275 276 276 276 277 274 272 271 270 270 271 271 271 271 273 273 274 272 272 272 272 272 273 272 272 273 275 278 276 274 273 276 277 276 275 277 278 279 280 282 284 285 287 287 288
274 274 274 273 274 273 273 273 272 273 273 274 275 275 276 276 277 277 276 275 275 275 275 275 275 274 274 273 273 273 273 273 273 273 273 273 273 272 272 273 273 273 275 276 276 276 276 273 272 271 273 273 272 273 274 275 273 272 272 272 273 273 273 272 274 274 276 278 275 274 273 275 276 276 274 276 277 278 278 281 283 284 285 285 285
273 273 273 272 272 272 272 271 271 271 272 274 274 275 276 276 277 277 275 275 275 274 274 274 274 274 273 273 272 272 272 272 273 273 273 272 272 272 272 272 272 273 273 274 274 274 274 274 274 274 274 275 274 275 275 275 275 275 275 274 274 274 274 275 275 276 276 277 277 275 271 274 276 274 274 275 276 277 277 280 282 284 285 285 285
274 274 273 273 271 271 270 270 269 269 270 273 274 275 275 276 276 275 274 274 273 273 273 273 273 273 273 273 272 272 272 272 274 275 275 274 273 272 272 272 273 273 274 276 278 278 277 276 275 275 275 276 278 276 276 276 276 276 276 276 275 274 273 272 271 274 274 277 277 275 272 273 275 274 274 276 276 275 277 277 281 283 284 284 284
273 272 271 271 271 270 269 268 268 268 269 271 273 274 274 275 275 273 273 272 271 271 271 272 272 272 272 272 272 272 272 272 274 275 276 276 273 273 272 273 273 273 274 275 278 279 280 280 281 281 281 281 281 282 281 282 280 279 277 275 274 275 273 271 272 272 273 275 276 276 274 272 274 274 273 275 275 275 275 276 277 281 283 283 284
272 271 271 270 269 269 268 267 268 267 268 270 272 273 274 274 274 272 271 271 271 271 271 272 272 272 273 274 274 272 272 272 275 276 277 276 274 274 273 273 273 273 274 275 276 277 279 280 280 280 281 281 281 281 281 281 281 280 276 273 274 275 272 272 270 271 273 274 275 277 273 272 274 275 273 274 275 275 275 276 277 278 281 281 282
271 271 270 269 268 268 267 267 268 267 266 268 271 272 273 274 273 272 271 270 270 270 270 271 272 272 272 273 274 274 274 274 277 278 278 277 275 274 274 273 273 273 274 275 275 276 276 276 276 276 276 277 277 276 277 280 280 279 277 276 276 274 272 272 272 272 270 272 275 277 272 272 273 274 273 271 270 273 276 276 276 277 277 277 277
Wind_Speed
4 2 4 5 5 4 3 2 2 2 2 1 1 2 4 3 3 1 2 1 2 3 3 3 3 3 2 3 2 2 2 2 2 1 1 1 2 5 6 5 7 9 9 9 9 9 8 9 9 10 12 14 15 14 14 11 5 5 6 6 6 6 6 7 7 5 5 4 3 1 0 0 2 3 5 4 5 6 6 5 7 7 8 8 8
1 1 3 5 4 4 4 4 5 4 2 1 2 2 2 2 2 1 1 1 1 3 1 4 3 2 3 2 2 2 1 1 1 1 1 1 1 4 6 4 3 5 8 10 10 10 10 10 10 11 13 14 15 16 15 15 12 6 8 8 4 8 7 11 8 7 7 7 6 4 3 3 3 4 5 6 3 3 4 4 5 6 7 7 8
5 4 5 6 5 5 4 4 5 4 4 4 5 4 3 2 3 3 3 3 4 3 3 2 3 2 2 2 2 1 2 1 1 1 1 1 1 1 4 6 4 3 5 7 9 11 11 12 12 13 13 13 15 16 17 15 12 10 9 11 8 8 9 7 6 9 9 9 8 5 5 4 4 4 4 3 1 3 3 4 4 6 7 7 7
6 6 5 5 5 5 5 5 5 5 4 4 5 4 3 3 4 3 3 2 2 3 4 4 2 2 1 2 1 2 2 2 2 2 2 2 1 1 1 1 7 5 4 5 7 9 11 12 13 13 13 13 14 14 15 16 13 14 14 14 14 14 13 12 11 9 10 11 9 8 6 5 5 4 4 4 6 4 4 3 4 5 6 7 8
7 6 5 5 5 6 6 5 5 5 4 5 4 3 3 3 3 1 1 1 2 3 2 2 2 2 1 3 1 2 2 2 2 3 3 2 2 2 2 2 2 6 5 4 5 8 10 10 11 12 12 13 14 15 15 15 16 16 16 16 16 15 15 14 14 14 14 12 12 9 7 6 7 5 4 5 6 7 6 5 3 4 6 7 9
6 6 6 6 6 6 6 6 5 5 5 4 4 3 3 3 1 1 3 4 3 4 3 2 3 2 1 2 1 3 2 2 2 2 2 3 3 3 3 3 3 3 3 5 5 7 10 10 10 9 10 11 12 13 13 14 14 15 16 17 18 17 17 17 16 14 15 15 12 10 9 9 8 5 6 6 7 8 5 2 3 5 7 8 9
6 5 5 6 5 6 6 5 5 4 4 4 4 3 4 4 3 3 4 4 4 3 4 4 4 3 2 2 2 3 1 2 2 2 3 3 3 3 3 4 5 5 4 3 6 7 8 10 10 9 10 10 11 11 12 12 13 13 14 15 16 17 17 17 17 17 18 18 14 10 11 9 7 8 8 9 8 8 5 6 6 9 7 7 8
8 7 6 6 6 6 6 5 5 5 5 5 4 4 5 4 5 4 3 4 3 3 3 3 5 6 3 2 2 2 2 2 3 3 3 3 4 4 4 5 5 4 5 5 5 4 7 6 9 11 10 11 12 12 11 11 11 11 12 13 14 15 16 17 17 17 17 18 20 19 12 12 12 10 10 9 8 8 8 8 10 10 7 7 9
8 8 7 7 7 7 6 6 6 6 6 5 5 5 5 4 5 5 5 4 4 3 2 2 3 4 3 1 1 1 2 3 4 3 2 4 5 5 5 5 6 6 5 5 5 6 5 5 6 7 7 8 13 14 14 14 13 12 12 13 13 14 15 15 16 16 16 16 17 19 19 7 7 7 9 8 9 10 10 10 11 7 7 8 9
8 7 7 7 7 6 6 6 6 6 5 6 6 5 5 5 5 4 3 4 4 4 3 2 1 1 2 1 1 1 1 3 3 3 4 4 5 5 5 5 5 5 5 4 5 5 4 7 8 7 3 4 10 11 12 14 15 15 14 14 14 14 15 15 15 16 15 16 16 17 17 17 13 10 10 10 11 11 11 11 11 9 9 11 10
9 8 7 6 7 7 7 7 6 5 5 6 6 6 6 5 4 4 5 6 4 4 3 3 2 2 2 1 0 2 3 4 3 3 3 4 4 4 4 5 4 4 4 4 4 5 5 5 4 4 4 5 7 8 9 10 11 12 14 15 16 16 15 16 16 15 15 15 16 16 17 17 17 14 13 12 12 12 12 12 12 10 11 12 14
9 8 8 7 7 7 8 8 8 7 8 8 7 6 6 6 6 6 6 6 6 5 6 6 4 3 2 2 0 4 5 3 3 4 3 3 4 4 5 5 5 5 5 4 4 4 5 6 5 6 5 7 7 5 8 9 8 9 12 13 14 14 15 15 16 16 16 16 15 16 17 17 18 18 14 14 13 13 13 12 12 11 13 13 12
9 9 8 8 7 7 8 8 8 8 8 8 8 8 7 4 4 6 7 6 7 8 8 7 3 3 3 2 2 7 4 4 7 5 5 4 5 4 5 6 6 6 5 5 6 5 5 5 6 6 6 6 7 9 9 8 4 11 15 15 14 15 14 15 15 16 16 16 15 16 15 17 18 17 16 17 16 14 14 14 13 13 13 14 12
9 9 9 9 8 8 8 8 8 7 8 8 8 8 9 9 6 5 7 7 7 9 9 8 4 5 4 1 4 6 5 5 8 7 5 5 5 5 5 6 7 6 5 5 5 6 5 6 5 6 6 6 6 6 6 7 7 14 15 15 16 17 17 16 16 15 15 16 16 15 15 16 16 18 18 15 17 18 16 14 14 15 14 14 13
10 9 8 8 8 8 8 8 9 8 8 9 9 10 10 10 10 7 5 6 7 8 10 10 6 7 4 3 2 2 3 3 8 6 6 6 5 6 5 6 8 6 4 5 5 5 5 6 6 6 6 6 5 5 6 6 7 10 10 13 17 18 18 18 17 17 16 16 16 16 15 16 16 17 17 19 17 17 19 19 18 17 16 15 14
10 9 9 9 9 9 8 8 8 8 8 8 9 10 10 10 10 10 7 6 6 8 9 10 8 8 5 4 1 3 1 6 9 3 6 6 7 6 5 6 6 6 4 5 6 5 5 6 7 6 6 6 5 5 5 5 8 9 10 10 15 17 18 18 18 18 18 18 17 16 16 15 16 16 17 18 20 19 17 20 22 21 19 18 17
10 10 9 10 9 9 8 8 8 9 8 8 9 9 9 9 10 9 10 7 6 5 7 9 11 10 7 4 3 4 4 5 8 2 9 4 6 5 5 7 6 6 3 4 5 5 5 6 6 5 5 5 5 5 5 5 5 5 7 10 13 16 18 18 19 20 20 20 19 19 18 17 16 16 17 18 19 20 20 19 19 22 23 21 20
10 10 10 9 10 10 9 9 9 8 8 8 8 8 9 10 9 8 9 10 7 7 6 6 8 9 9 7 6 4 4 5 4 3 7 1 3 4 5 6 6 5 3 5 5 4 5 6 6 6 5 5 5 5 4 5 5 4 4 8 16 15 15 17 19 20 20 21 21 20 20 19 19 18 17 17 18 19 20 21 20 19 21 23 22
10 10 10 10 9 9 9 9 8 8 8 8 8 8 7 8 7 8 8 7 7 7 8 7 5 7 7 6 5 4 3 4 4 4 4 2 3 3 3 5 6 5 4 6 5 4 5 6 6 5 5 4 4 4 4 4 6 5 6 13 15 14 15 17 18 19 20 20 21 21 21 21 21 20 19 19 18 18 19 20 21 21 20 19 21
9 10 10 9 9 9 9 8 8 8 7 7 8 7 6 7 8 8 7 7 8 7 6 7 6 6 6 6 5 4 3 3 3 4 4 7 6 1 2 4 3 4 5 6 5 5 6 6 5 4 4 4 3 3 3 3 4 3 4 11 13 15 16 18 19 19 18 19 20 20 21 21 21 22 22 21 20 18 18 19 20 21 21 21 19
9 9 9 9 9 8 9 8 8 8 7 6 7 7 8 8 8 8 7 7 7 7 6 6 6 6 6 6 5 5 3 3 2 3 4 6 6 6 8 2 1 2 4 4 3 4 5 5 5 5 4 3 3 4 4 4 4 3 3 8 10 14 16 20 21 20 18 18 19 20 20 21 21 21 22 22 21 20 19 18 18 19 20 21 21
8 8 9 9 8 8 8 8 8 7 7 7 7 7 7 6 7 7 7 7 6 6 6 5 4 5 5 5 5 5 4 4 4 6 4 3 6 9 8 10 9 3 2 2 5 5 4 4 5 4 4 3 4 4 3 4 4 3 3 6 9 12 17 20 20 19 19 19 19 19 19 20 20 21 21 22 22 21 20 19 18 18 19 20 21
6 7 8 7 8 8 8 7 7 6 6 6 6 5 5 5 5 6 8 7 6 6 6 6 4 4 5 4 4 4 4 4 5 5 5 5 6 6 7 7 8 10 3 4 5 5 4 4 4 4 3 3 4 5 4 4 7 3 4 5 10 15 20 20 19 19 18 19 20 20 20 19 20 20 21 21 21 21 22 21 20 19 19 19 20
6 6 6 6 6 6 6 6 6 6 6 5 5 5 5 5 6 6 5 6 6 5 5 5 6 4 4 4 3 3 3 3 4 4 5 5 6 8 7 8 6 6 7 7 5 4 4 5 4 4 2 3 4 4 5 4 5 4 4 8 11 17 19 20 20 19 19 18 19 19 19 19 20 20 20 21 21 21 22 22 22 21 20 19 20
5 5 5 6 5 6 6 5 5 5 5 5 5 5 5 5 5 5 5 5 5 5 4 4 4 4 3 3 2 2 2 3 3 4 4 4 5 7 6 6 8 9 6 7 5 4 5 3 3 3 3 3 4 4 3 3 4 6 9 9 14 16 18 19 19 20 20 19 19 19 19 19 20 20 20 20 21 21 22 22 22 22 22 21 20
5 5 4 5 5 5 5 5 4 4 4 4 4 4 4 4 4 4 4 4 3 3 3 3 3 3 3 3 3 2 2 2 3 3 4 4 4 5 7 5 6 8 6 5 5 6 4 2 4 4 4 6 5 4 5 6 5 10 15 11 10 15 17 18 20 20 20 19 20 19 19 19 20 20 20 21 21 22 22 22 23 23 23 22 22
5 4 4 5 5 5 5 4 4 5 5 5 4 5 4 4 4 4 4 4 3 3 2 2 2 3 3 3 3 2 2 2 3 3 3 3 4 5 6 9 8 5 6 5 6 4 7 4 4 6 5 5 4 5 4 4 9 14 11 9 9 14 15 18 19 20 20 20 20 21 21 21 21 22 21 21 22 22 22 22 23 23 23 23 22
5 4 4 4 4 4 4 5 4 5 5 5 4 3 3 2 2 2 1 1 1 2 2 1 1 2 1 3 3 3 2 2 3 3 3 4 4 4 5 5 8 10 7 8 7 7 7 8 7 3 4 4 5 7 10 11 8 10 12 8 9 9 14 19 20 21 21 21 22 22 23 23 23 23 22 22 22 21 21 22 22 23 23 23 23
4 4 4 4 3 3 4 4 4 3 2 2 2 2 1 1 2 2 3 2 2 1 2 2 3 2 2 2 3 3 3 3 3 3 4 4 4 4 4 5 6 7 8 9 8 8 8 8 8 6 7 8 8 7 8 8 10 11 8 8 9 10 13 18 21 21 22 24 24 24 24 24 23 23 23 23 23 22 22 22 22 22 22 23 23
4 3 4 4 3 3 3 3 3 2 2 2 1 1 1 2 2 2 3 3 3 2 2 2 3 3 3 3 3 3 3 3 3 4 3 4 4 4 4 5 5 6 7 9 10 5 8 6 5 9 11 13 12 10 7 8 10 12 11 10 9 9 14 20 22 24 24 25 24 24 24 23 23 23 24 24 24 24 24 23 23 23 23 23 24
4 4 4 4 4 3 3 3 3 2 3 3 3 3 2 3 3 2 3 4 4 4 2 2 3 3 4 4 3 3 3 4 4 4 3 3 4 4 5 5 5 6 7 7 11 7 3 9 8 6 9 10 10 12 11 9 9 10 10 10 10 14 18 16 20 21 22 22 22 23 23 24 24 24 24 25 25 25 26 25 24 24 24 24 24
5 5 4 4 4 4 3 3 3 3 3 3 3 3 3 3 3 3 4 4 4 4 3 3 2 3 4 4 4 4 4 4 4 4 4 4 4 4 5 5 6 5 6 8 10 14 8 8 11 8 9 11 9 10 13 11 10 12 9 10 12 16 14 11 14 17 20 21 22 22 23 23 24 25 25 25 25 26 27 27 26 25 24 24 24
5 5 5 4 4 4 4 4 4 4 4 4 3 3 2 3 3 3 3 3 4 4 4 4 3 3 4 4 5 4 3 4 4 4 5 5 4 5 4 5 5 5 6 7 10 13 11 6 8 10 8 9 10 7 10 10 10 11 12 11 12 11 11 11 12 15 18 21 22 23 23 23 24 25 25 25 25 26 26 27 27 25 25 24 23
5 5 5 4 4 4 4 4 4 4 3 3 2 2 2 2 3 1 2 4 4 4 4 5 4 3 4 5 5 4 3 4 5 5 5 5 5 6 5 5 6 6 5 7 9 10 15 11 8 8 8 7 10 6 7 11 13 10 12 13 11 10 10 10 11 12 20 21 22 22 22 23 24 24 25 24 26 26 26 27 27 26 25 24 23
5 5 5 5 4 4 4 4 3 2 2 1 1 1 1 2 2 3 3 4 4 5 5 5 5 5 5 5 5 5 3 5 6 5 5 6 5 6 6 6 7 7 6 6 8 10 13 13 11 10 8 6 7 9 8 8 11 11 12 12 11 10 10 12 12 11 18 23 23 21 21 22 23 24 24 25 25 27 27 27 26 26 26 25 24
5 5 5 5 4 4 3 2 2 1 1 1 1 1 1 2 2 3 4 4 4 5 5 6 6 5 6 6 5 5 5 6 6 6 5 5 5 6 7 7 7 8 7 6 7 9 10 13 12 10 9 9 7 8 8 7 9 10 9 11 12 13 12 11 11 10 12 20 22 24 24 23 23 22 23 24 24 25 26 27 26 26 26 26 25
5 5 5 4 3 3 2 1 1 1 1 1 2 2 1 1 2 3 4 4 5 5 6 6 6 6 6 6 6 6 5 6 6 6 6 7 7 6 7 7 7 7 7 7 8 8 10 12 13 11 9 9 8 8 8 9 9 9 9 11 12 13 13 12 10 9 15 21 22 24 24 24 24 23 23 23 24 24 25 25 26 25 25 25 25
5 5 4 3 3 2 1 0 1 2 2 2 2 2 2 2 2 3 4 4 5 5 6 6 6 6 6 6 6 6 6 6 6 6 7 8 7 7 8 8 7 8 8 8 8 9 10 11 12 14 11 10 11 8 8 8 10 11 10 10 10 10 10 11 11 11 10 9 9 11 15 18 22 28 28 26 25 26 25 25 25 26 26 25 26
5 4 4 3 2 2 1 1 2 2 2 2 2 2 2 2 3 3 4 5 5 5 5 6 6 6 7 7 6 6 6 6 7 7 7 7 6 8 7 8 7 8 8 8 8 9 9 11 11 11 12 10 9 12 9 8 10 9 12 11 10 8 9 11 13 11 9 12 14 19 17 18 21 19 22 25 25 26 25 24 24 23 23 23 24
5 4 4 3 2 2 2 2 2 2 2 3 2 2 2 3 3 4 4 5 5 6 6 6 6 7 7 7 7 7 7 7 7 6 6 7 7 8 7 7 8 8 8 7 8 8 9 10 11 11 11 12 11 9 10 10 11 9 6 10 13 12 11 10 10 12 11 12 13 10 11 13 12 16 19 20 22 23 25 24 23 22 19 19 21
4 4 4 4 3 3 3 3 2 2 2 2 1 1 2 3 3 4 5 5 6 6 6 7 7 7 7 7 7 7 7 8 11 11 11 10 8 8 8 7 7 8 8 8 8 8 9 9 11 10 12 12 11 11 12 10 10 12 10 10 13 11 11 11 10 9 10 12 11 12 9 9 11 11 12 12 12 18 19 23 21 24 22 22 22
4 4 4 4 4 4 3 3 3 3 2 2 1 2 4 3 4 4 5 5 5 6 6 7 7 7 7 7 7 10 12 12 13 14 15 15 15 12 10 9 8 8 9 9 9 8 9 11 11 11 12 12 12 11 12 12 12 12 12 11 12 12 11 12 11 8 9 10 12 13 11 8 10 12 10 11 11 13 12 12 11 15 20 26 27
5 4 4 5 4 4 4 4 4 3 3 3 3 4 6 7 6 5 5 5 6 7 7 7 7 7 7 7 7 8 9 9 10 13 14 14 14 15 16 16 14 11 9 10 10 9 10 11 11 11 11 14 14 12 12 13 12 12 11 11 11 12 12 13 14 10 5 10 13 13 14 9 10 13 12 10 10 10 11 12 20 22 23 24 27
4 4 5 5 5 5 4 4 4 4 4 4 5 6 7 8 8 6 5 6 6 6 7 8 7 7 7 7 7 6 6 7 7 8 11 14 14 15 15 15 15 16 15 12 11 10 9 10 11 11 12 13 15 13 12 12 13 12 11 11 12 12 13 13 13 14 11 10 14 18 19 11 10 13 12 10 9 9 11 18 23 24 25 25 25
4 4 6 5 5 5 5 5 5 4 4 5 6 7 8 9 9 8 6 7 7 7 8 8 8 8 7 7 7 6 6 9 8 8 9 9 11 13 14 14 15 15 15 17 18 14 12 11 12 14 14 15 16 15 13 14 14 15 14 13 12 12 13 14 14 16 13 9 15 15 19 13 10 14 13 10 9 11 12 17 24 25 26 26 26
4 4 4 4 4 5 5 5 5 5 5 5 7 8 9 10 10 9 7 7 8 8 9 9 8 8 7 7 7 7 7 7 7 8 8 8 8 8 8 9 9 11 14 17 19 22 20 15 16 16 16 14 16 16 15 15 16 15 13 14 13 14 16 16 17 16 14 11 13 15 17 11 8 13 14 12 9 12 11 16 24 24 25 27 28
5 5 5 5 4 4 4 3 4 4 4 7 8 9 10 10 10 9 7 7 7 8 8 8 9 8 8 7 8 9 8 8 7 8 8 9 8 7 8 10 12 13 14 14 14 14 14 14 15 17 17 16 17 18 17 15 16 15 14 17 17 16 15 18 16 17 15 12 13 12 16 13 7 13 13 12 11 12 10 15 22 24 24 24 25
4 4 3 4 4 5 4 4 3 5 5 8 9 10 10 10 10 6 6 7 7 7 8 8 8 8 8 8 8 9 9 9 10 13 12 11 10 10 11 11 12 12 12 14 18 19 17 16 16 17 16 19 22 20 19 15 14 14 15 15 14 14 15 13 12 9 10 7 9 12 13 13 8 13 14 10 11 13 10 9 16 22 23 25 26
5 5 4 4 4 4 5 5 5 5 4 6 8 9 9 10 7 5 5 6 7 7 8 8 8 9 9 9 9 9 9 9 11 15 16 15 11 11 12 12 10 9 10 11 19 25 26 27 29 30 30 31 30 31 32 32 24 17 14 13 11 9 11 13 14 11 11 8 8 9 11 13 8 11 14 10 11 12 11 10 9 15 21 23 24
5 5 4 3 4 4 5 5 5 4 3 5 8 9 10 10 8 6 5 6 7 7 8 8 8 8 10 14 13 11 11 11 14 16 18 15 11 10 11 13 14 14 13 11 12 13 23 26 26 26 27 27 29 30 30 28 28 21 13 15 13 11 14 12 15 12 11 9 9 7 11 10 10 9 13 11 12 9 10 9 10 11 17 15 20
3 4 4 3 3 3 3 4 6 6 4 6 9 10 10 10 7 5 5 6 7 7 7 7 7 7 8 9 14 13 13 14 19 18 18 15 10 10 11 12 14 15 13 12 10 10 8 9 11 12 15 19 18 17 17 26 27 22 15 15 13 12 13 13 13 13 13 8 5 6 10 9 9 9 9 12 13 9 6 9 8 7 9 10 12
Wind_Direction
276 309 35 29 16 8 36 33 47 75 116 141 101 76 58 18 34 40 0 109 146 120 107 76 69 66 67 62 42 56 54 50 44 24 18 8 30 100 79 31 12 8 9 9 10 9 0 350 346 337 342 350 352 353 356 338 267 228 254 285 306 295 294 208 215 207 221 229 229 221 139 100 5 334 331 318 334 359 9 19 18 13 15 11 12
39 76 88 69 65 63 48 48 49 30 33 103 148 166 121 66 31 50 58 299 359 90 205 101 84 71 64 78 51 49 74 74 66 31 38 29 24 122 120 109 49 27 16 8 12 10 6 356 347 343 345 346 348 351 357 354 338 300 311 309 271 301 319 204 214 220 217 231 233 228 233 236 261 299 295 309 360 351 24 4 0 355 348 351 352
20 88 93 90 85 75 68 61 60 46 19 39 46 39 62 58 24 35 43 358 28 40 329 88 86 95 91 73 39 51 53 38 39 41 15 29 12 6 144 153 124 85 37 27 19 16 10 5 359 354 350 349 344 347 350 353 347 336 314 326 321 306 302 346 283 242 226 229 226 220 230 240 250 274 275 299 337 317 338 347 350 334 330 327 330
30 31 60 64 64 64 55 52 50 45 40 44 69 70 67 68 53 38 40 24 28 22 351 338 80 58 55 63 64 38 26 18 23 35 30 20 345 357 1 109 155 127 103 50 34 30 19 14 9 3 356 352 351 346 341 341 346 345 340 338 340 336 341 327 343 329 268 241 235 228 238 241 238 236 272 265 269 274 289 301 327 339 329 319 313
30 32 51 57 51 56 57 48 41 39 42 46 50 73 81 71 60 92 105 154 43 30 344 338 358 21 25 33 9 40 36 359 28 20 17 3 6 5 357 359 12 142 144 95 73 48 33 20 13 6 1 360 355 349 343 339 340 341 344 340 341 343 339 340 343 334 327 281 258 236 235 253 267 262 244 275 272 279 289 310 308 320 320 317 303
33 27 36 56 57 56 52 51 48 46 51 58 66 54 62 67 98 125 43 49 52 24 357 337 333 321 10 35 16 28 9 7 24 26 2 19 360 11 359 3 5 13 8 138 86 67 40 21 14 7 4 1 357 353 348 346 342 340 336 336 336 337 335 337 340 341 334 323 255 254 240 251 279 268 253 250 261 263 268 292 295 299 309 307 307
46 52 53 57 60 61 53 46 56 66 63 59 71 66 65 56 39 58 77 47 50 46 4 345 331 325 1 358 33 11 347 20 31 32 28 6 20 22 11 22 9 7 354 357 128 72 40 15 3 3 6 5 1 354 353 349 346 343 342 337 337 332 331 330 333 335 340 341 328 259 263 279 263 263 268 273 258 252 244 256 267 281 285 294 303
38 46 57 59 60 58 56 49 47 52 50 45 59 62 61 55 23 1 91 74 51 47 33 11 349 352 354 348 11 4 359 24 36 44 26 15 30 26 30 31 24 5 356 15 1 66 47 13 357 359 4 8 360 356 354 349 345 342 340 339 336 333 332 332 333 333 334 337 339 330 272 255 267 264 269 274 251 232 239 257 261 294 279 282 295
52 49 53 51 50 51 47 45 45 48 48 45 42 45 61 59 46 37 50 73 56 39 21 358 324 302 280 273 20 344 28 26 42 28 53 38 42 34 42 40 35 17 25 16 16 8 21 9 341 339 353 7 359 358 358 356 350 344 340 339 333 333 332 332 332 332 332 329 330 332 331 296 280 258 259 252 230 236 246 253 277 274 258 269 291
44 54 61 60 62 61 56 51 54 54 52 52 52 45 48 64 63 43 45 64 58 32 12 350 284 277 293 314 11 24 35 56 59 54 51 41 53 47 42 53 42 33 22 21 21 12 3 2 3 354 68 13 3 360 0 357 355 352 351 347 343 339 335 333 332 333 331 331 326 327 327 322 292 245 246 244 238 242 250 262 272 263 260 283 279
46 45 56 59 56 51 47 44 51 56 55 58 57 52 56 59 69 73 60 49 37 22 353 320 292 257 255 325 300 53 60 70 69 58 49 55 58 69 56 46 41 32 21 11 18 4 1 356 356 352 2 26 354 355 354 355 356 355 353 350 347 344 340 336 334 330 332 330 329 324 321 317 322 300 252 244 245 245 251 260 267 261 256 271 289
43 49 51 52 54 48 49 42 42 45 45 42 37 35 38 55 48 49 56 55 34 10 358 337 306 282 239 260 227 91 85 93 76 55 60 58 62 54 52 42 24 19 16 17 18 9 4 358 355 348 345 347 332 343 340 342 346 353 350 348 345 345 343 341 338 336 334 332 327 325 319 318 316 317 282 250 251 252 255 260 261 262 277 286 287
42 45 48 52 53 49 46 45 48 46 47 44 37 33 22 25 68 50 45 44 33 11 357 322 286 333 323 277 115 98 105 97 44 59 58 58 54 55 52 41 22 15 14 21 16 16 11 4 358 350 350 344 340 341 337 321 314 357 348 345 344 344 342 340 339 339 337 334 332 327 323 318 314 311 307 288 277 272 267 268 269 271 268 267 287
43 44 47 48 49 49 46 42 42 47 48 45 38 34 28 22 10 72 52 47 37 11 7 349 28 355 331 2 137 109 103 79 22 74 58 62 68 50 42 44 25 10 17 24 15 14 13 6 354 352 349 346 342 341 335 344 1 352 345 345 351 348 344 340 339 339 337 336 334 329 325 319 312 306 299 287 282 280 271 257 257 261 271 273 266
46 45 46 45 50 53 49 46 44 40 44 39 34 34 27 24 22 15 60 58 49 23 18 17 3 329 264 255 103 153 127 71 15 74 55 56 50 51 43 39 29 6 12 22 11 7 13 3 353 352 351 345 343 340 341 345 348 338 340 355 359 351 348 345 342 341 338 335 331 331 329 325 320 313 305 301 291 278 277 272 262 262 260 263 267
46 49 50 47 47 51 51 47 46 45 46 45 38 36 29 27 26 21 14 56 46 41 28 24 21 359 32 348 317 334 138 36 352 52 37 68 35 39 44 30 21 5 359 21 8 360 6 0 351 350 348 343 343 342 342 341 348 355 350 23 358 355 353 350 347 343 341 337 334 330 327 326 323 318 314 308 302 295 282 274 272 268 265 266 269
46 46 48 49 46 47 51 51 50 46 47 49 45 36 32 29 25 30 23 25 46 54 48 34 31 24 20 13 14 43 42 346 329 122 23 16 29 21 53 27 13 355 353 18 1 349 1 352 345 343 341 341 345 344 341 345 358 345 357 8 357 357 355 354 351 349 346 343 338 334 330 326 323 320 317 314 312 307 300 289 275 271 270 271 270
50 48 48 49 49 47 47 52 51 47 48 50 47 42 32 31 26 29 25 19 34 33 40 55 42 33 38 44 33 41 358 334 20 332 339 355 28 1 34 26 5 342 358 7 351 352 358 345 335 334 336 333 344 336 339 348 350 350 359 6 359 358 356 355 352 349 344 342 340 338 335 331 327 323 319 315 312 311 312 309 300 282 272 269 269
49 50 49 49 50 47 50 51 51 51 46 49 46 43 38 30 26 33 32 26 26 46 33 16 37 38 32 35 40 47 28 17 10 326 329 7 346 341 26 14 357 337 1 355 339 353 350 332 322 323 322 325 330 331 335 338 341 345 25 8 359 356 354 352 349 343 340 338 337 335 333 332 330 326 322 318 315 311 308 306 309 307 295 280 273
53 50 50 49 50 50 48 50 52 50 48 48 45 37 36 33 31 32 37 36 30 35 34 25 25 18 15 24 18 12 26 45 32 4 322 314 319 318 89 347 345 333 349 335 334 346 334 320 308 312 310 312 322 322 330 329 322 348 6 2 354 351 347 344 340 337 333 332 332 332 331 328 327 326 324 322 317 312 308 305 303 304 304 302 291
53 51 48 50 48 49 48 49 47 48 46 50 47 43 39 36 28 30 31 37 38 27 32 31 25 16 0 7 9 9 359 18 22 8 337 320 309 331 321 300 257 258 333 308 326 328 314 305 305 301 295 308 322 325 320 321 321 339 355 2 352 344 339 336 333 330 326 324 325 324 325 325 324 322 320 319 319 317 311 306 302 300 299 299 297
56 51 52 48 47 47 47 47 47 41 41 39 39 41 40 39 38 36 29 38 37 38 35 18 27 21 5 356 8 359 358 357 3 353 329 307 311 321 325 329 329 327 278 289 311 305 288 285 298 301 298 325 331 319 321 312 312 312 8 0 349 339 334 329 327 323 322 321 320 319 318 319 320 320 319 317 315 314 313 310 305 299 297 295 296
69 58 52 51 53 49 49 47 45 43 40 35 33 34 36 38 36 40 39 35 31 32 35 25 13 30 12 9 7 7 350 350 344 345 330 321 317 310 316 318 320 317 311 299 284 270 261 264 274 279 283 319 316 313 314 310 301 45 355 2 342 331 326 323 320 318 317 317 317 316 315 316 315 316 316 315 313 310 309 308 307 304 298 293 291
74 66 52 49 55 55 56 57 49 43 42 39 32 29 37 39 40 36 33 34 32 32 35 31 15 20 19 9 1 353 346 356 344 329 326 320 319 308 314 322 311 298 311 306 282 243 242 243 249 256 280 302 296 300 295 303 320 55 0 341 333 323 317 316 316 315 313 311 311 311 313 313 313 311 312 312 310 309 306 305 304 303 301 297 291
82 75 60 53 57 55 51 51 51 45 42 41 38 32 35 44 41 43 40 37 36 30 37 29 25 12 360 345 348 338 347 355 330 322 319 318 310 307 308 317 304 306 305 314 314 320 302 251 253 264 285 283 289 287 288 300 311 328 345 323 318 313 310 310 310 310 309 305 304 307 310 310 309 309 307 307 307 306 306 304 302 301 301 299 296
92 82 76 73 70 70 70 67 61 57 48 44 38 34 31 45 43 36 33 34 25 26 48 23 23 4 345 337 343 328 340 350 331 321 325 326 314 317 310 303 292 295 299 299 305 310 297 304 312 316 321 308 296 294 308 318 322 332 318 314 310 307 305 304 306 305 303 302 302 304 305 305 304 303 302 302 304 304 303 303 302 299 297 297 296
98 96 84 80 75 71 67 67 59 52 44 37 34 36 28 41 46 38 32 19 8 16 34 29 13 0 354 346 320 305 348 347 335 322 329 316 319 312 317 317 312 299 308 308 303 292 303 307 313 313 304 304 314 318 315 323 321 311 315 313 306 303 300 300 298 300 301 302 301 300 300 299 299 298 299 299 299 299 298 298 298 299 298 297 296
98 94 83 82 83 81 75 67 63 59 52 44 31 36 19 35 47 43 36 23 319 29 350 352 353 325 323 335 316 328 336 340 324 317 319 322 310 309 312 309 316 317 322 316 320 306 328 318 307 258 298 321 321 320 319 314 304 307 312 306 301 299 299 300 301 300 300 299 299 297 295 296 295 294 295 296 295 294 294 294 295 295 294 294 293
106 100 95 87 88 94 89 83 73 73 80 74 51 21 327 55 46 42 21 357 334 6 6 360 348 329 340 330 318 319 329 335 315 317 321 307 311 308 301 304 310 302 309 307 303 309 316 321 317 322 328 321 318 316 312 310 308 309 302 300 301 300 296 297 299 300 299 297 295 294 293 291 290 291 292 293 293 293 292 292 291 291 290 290 290
115 115 115 118 119 124 121 118 111 101 85 72 64 37 359 42 27 52 38 348 345 355 358 3 345 340 331 335 321 321 336 331 318 309 299 304 296 298 302 300 298 287 292 297 294 289 293 293 295 306 321 321 318 313 310 306 305 311 313 308 301 294 299 304 301 296 292 292 292 291 289 288 289 290 291 291 292 292 292 291 290 288 288 288 288
136 143 151 153 146 137 124 113 114 112 96 76 44 35 21 33 8 24 33 4 353 344 346 357 341 335 332 322 323 320 334 327 314 305 303 294 301 300 299 295 283 278 284 287 291 279 287 301 295 300 303 304 307 309 311 310 309 312 308 309 312 316 312 299 292 294 295 295 294 293 292 290 290 290 289 288 289 290 291 290 288 286 285 285 286
148 153 147 138 129 122 117 116 107 89 72 63 49 30 23 31 10 14 3 355 349 331 336 339 325 316 317 318 319 319 324 321 312 313 307 303 298 294 291 286 282 281 277 278 274 284 295 290 293 296 301 303 307 304 303 307 311 317 319 317 313 313 308 303 298 296 296 295 294 293 292 291 289 288 289 289 288 288 290 289 288 287 286 284 283
161 155 142 134 123 118 108 90 76 68 60 47 35 25 21 17 5 19 344 342 336 325 323 319 314 318 319 314 309 312 314 310 312 310 303 301 298 291 290 288 286 285 286 283 284 288 290 284 291 298 302 304 298 298 299 305 313 318 320 312 312 306 304 305 309 305 301 299 296 294 293 290 292 292 290 290 290 289 289 289 288 286 285 283 282
152 134 124 119 103 91 88 73 68 63 56 48 36 15 14 352 355 0 335 331 323 319 319 313 322 321 316 307 308 309 319 312 303 299 299 304 301 297 290 293 291 291 293 292 286 288 292 300 291 292 296 293 288 304 319 313 309 314 311 309 307 306 306 310 306 305 306 304 301 298 296 294 294 293 290 289 290 290 289 288 287 286 284 283 281
127 112 105 96 87 81 72 66 63 60 47 49 25 24 345 350 337 335 327 323 316 314 313 311 316 315 310 307 306 310 312 309 304 299 301 298 297 297 299 298 292 292 292 289 289 287 290 293 299 300 300 305 305 310 315 303 300 306 306 306 307 309 307 304 302 299 303 304 304 304 304 301 295 291 289 288 288 287 287 287 286 285 285 283 283
112 96 90 84 79 70 71 70 67 45 8 352 320 333 339 333 326 317 316 311 303 300 300 303 306 311 305 303 299 312 313 303 301 304 301 303 307 304 300 295 292 294 294 292 286 284 291 295 297 302 306 309 304 303 300 295 295 300 304 304 305 302 301 300 297 294 299 311 316 315 310 304 300 297 294 290 288 286 286 286 287 286 285 284 282
103 105 92 79 75 76 69 57 358 292 304 304 297 290 302 298 298 294 292 294 293 291 291 292 295 292 291 289 295 301 302 298 297 299 303 309 299 297 294 297 295 295 295 293 291 287 288 289 294 298 305 302 303 305 308 310 307 303 306 300 297 298 300 299 301 311 319 315 309 306 306 306 304 302 299 296 293 291 289 288 288 288 288 287 285
102 95 97 88 89 78 85 308 284 287 279 286 286 283 286 293 288 287 284 285 285 288 288 287 286 287 286 287 290 293 291 290 291 293 296 293 295 290 290 291 294 296 295 295 293 292 290 289 296 302 307 312 312 305 316 318 312 309 303 297 293 296 306 315 313 313 309 305 307 303 301 303 305 303 300 298 296 293 288 285 286 287 286 286 286
112 112 111 111 115 140 212 214 254 264 277 280 277 281 279 278 283 280 285 282 283 285 282 284 284 282 280 281 282 280 279 281 283 287 291 294 291 291 292 297 298 299 297 295 299 300 297 297 296 294 300 302 303 305 313 312 303 301 305 308 301 304 309 306 304 305 307 304 299 297 297 296 295 294 294 295 294 297 296 293 290 287 284 281 282
121 128 136 140 157 173 205 220 233 250 266 268 272 278 281 283 283 283 278 282 286 286 284 285 285 281 278 277 274 273 272 273 276 282 292 297 298 297 298 299 299 300 299 302 305 301 297 295 293 298 299 300 303 297 302 308 305 299 299 306 304 307 304 298 297 307 309 305 303 301 301 303 308 313 317 315 314 315 320 319 313 309 298 286 281
127 137 141 148 169 200 201 212 225 243 251 258 264 311 316 303 295 292 291 286 285 287 286 284 280 278 276 275 271 267 266 269 271 274 276 277 284 287 290 293 298 300 297 296 294 295 293 292 292 294 295 296 297 305 307 305 303 302 306 301 292 295 298 299 300 297 299 299 300 301 305 317 316 311 303 300 302 306 302 298 298 294 292 291 289
146 151 155 165 183 199 207 212 217 223 239 240 210 272 273 279 298 292 290 282 280 279 280 280 278 276 274 270 268 268 270 268 269 270 272 272 275 275 280 287 288 288 287 288 287 288 290 289 288 295 294 293 296 300 297 296 296 295 293 292 295 301 302 296 290 293 299 300 300 301 303 314 305 298 296 294 299 299 298 290 285 288 290 290 290
158 161 170 180 187 195 202 213 219 225 226 228 226 259 265 269 275 279 277 279 278 277 273 272 273 273 270 271 273 274 274 270 266 267 269 271 270 272 275 276 277 277 282 282 280 283 283 282 285 286 286 288 289 290 290 295 290 288 286 289 293 299 300 302 302 298 282 298 303 303 299 306 300 294 294 290 292 292 289 288 290 289 288 288 287
170 170 192 190 187 188 197 211 219 226 237 235 246 258 266 268 266 266 268 271 271 267 266 265 267 271 274 275 272 271 270 267 274 280 279 277 276 274 276 279 279 276 269 267 274 277 274 278 281 280 283 282 284 285 286 285 285 284 284 287 288 289 289 289 290 295 301 307 302 301 297 304 294 291 293 293 289 286 285 290 294 295 294 290 285
168 182 198 191 188 191 198 207 220 227 234 243 248 257 262 266 266 266 266 263 264 262 262 264 268 269 271 274 274 272 270 273 271 267 268 273 275 277 277 276 279 279 276 271 266 267 273 272 270 273 269 276 278 278 274 276 281 284 287 284 283 279 279 283 285 289 291 304 296 293 291 295 299 292 289 291 293 288 285 287 289 290 290 292 295
177 188 195 195 189 194 200 207 216 227 239 241 248 253 259 262 264 265 263 262 259 260 259 263 264 265 267 272 277 276 274 275 274 275 277 280 285 288 289 288 285 285 281 277 273 271 271 271 271 270 272 269 272 275 274 275 278 279 280 278 279 280 279 276 281 280 285 290 284 286 285 290 291 289 290 295 293 287 286 289 290 289 289 291 292
177 186 191 191 196 194 197 204 215 231 238 242 249 253 256 261 265 268 262 260 260 258 260 260 264 269 272 271 272 273 275 274 271 275 282 284 287 285 277 270 266 262 260 260 262 262 262 260 260 265 269 270 270 269 269 266 268 270 272 276 278 279 278 278 274 276 274 261 259 269 280 292 296 287 284 293 293 287 291 294 295 295 292 290 290
176 182 193 184 187 188 195 200 216 231 242 246 249 251 256 261 267 267 259 258 256 257 259 263 265 269 267 265 267 271 272 273 271 276 281 285 283 278 275 270 264 258 256 254 265 268 266 264 263 264 263 264 264 266 264 264 268 270 272 272 272 274 275 269 266 266 265 273 264 277 281 285 291 285 288 291 289 288 293 288 293 294 295 295 294
175 183 184 186 186 182 195 200 212 232 238 249 253 255 259 261 264 262 260 258 259 260 262 264 263 264 266 264 266 269 275 276 280 282 284 286 282 275 274 274 266 260 263 264 266 269 270 273 274 279 280 279 279 277 277 282 282 281 280 277 268 272 275 283 282 283 280 283 274 271 278 285 295 289 291 293 286 287 290 292 292 297 298 295 294
183 181 176 177 189 191 191 201 209 223 238 251 259 262 260 258 256 256 254 255 261 260 267 264 263 266 263 261 261 267 271 275 278 281 284 287 284 281 279 280 278 274 269 270 273 266 268 271 282 283 288 288 290 293 293 294 292 290 285 281 286 287 279 276 283 287 287 285 284 286 282 279 292 285 290 292 287 282 290 293 298 294 293 303 317
174 158 172 179 186 196 198 201 218 225 243 258 263 265 262 261 259 253 253 260 264 264 268 268 268 270 272 268 268 267 269 274 280 286 290 292 287 282 281 278 277 274 275 280 280 284 290 293 290 294 293 292 290 285 279 281 281 281 278 280 284 276 277 277 279 289 286 276 282 300 286 290 290 286 297 301 290 279 269 282 284 297 310 304 293